Bluefield, WV

1:04 AM EST on November 15, 2019 (GMT -0500)
Mercer County

Weather History for KBLF - May, 2019

Change the Weather History Date:

Monday, May 20, 2019

  Actual Average Record
Temperature  
Mean Temperature 66 °F 64 °F  
Max Temperature 75 °F 73 °F 87 °F (1996)
Min Temperature 57 °F 54 °F 32 °F (2002)
Degree Days  
Heating Degree Days 0 4  
Month to date heating degree days 78 104  
Since 1 July heating degree days 4851 4534  
Cooling Degree Days 1 2  
Month to date cooling degree days 28 31  
Year to date cooling degree days 33 59  
Growing Degree Days 18 (Base 50)    
Moisture  
Dew Point 53 °F    
Average Humidity 55    
Maximum Humidity 78    
Minimum Humidity 31    
Precipitation  
Precipitation 0.01 in 0.14 in 1.58 in (1942)
Month to date precipitation 4.31 2.68  
Year to date precipitation 18.01 15.19  
Snow  
Snow 0.00 in - - ()
Month to date snowfall 0.0  
Since 1 July snowfall 30.8  
Snow Depth 0.00 in    
Sea Level Pressure  
Sea Level Pressure 29.97 in    
Wind  
Wind Speed 9 mph (West)    
Max Wind Speed 20 mph    
Max Gust Speed 30 mph    
Visibility 10 miles    
Events      
T = Trace of Precipitation, MM = Missing Value Source: NWS Daily Summary

Daily Weather History Graph

Daily Weather History Graph

Search for Another Location

Airport or City:

Astronomy

May. 20, 2019 Rise Set
Actual Time 6:12 AM EDT 8:30 PM EDT
Civil Twilight 5:42 AM EDT 9:00 PM EDT
Nautical Twilight 5:06 AM EDT 9:36 PM EDT
Astronomical Twilight 4:26 AM EDT 10:16 PM EDT
Moon 10:29 PM EDT (5/20) 7:40 AM EDT (5/20)
Length of Visible Light 15h 17m
Length of Day
14h 18m
Waning Gibbous, 96% of the Moon is Illuminated
May 20
Waning Gibbous
May 26
Last Quarter
Jun 3
New
Jun 10
First Quarter
Jun 17
Full

Hourly Weather History & Observations

Time (EDT) Temp. Dew Point Humidity Pressure Visibility Wind Dir Wind Speed Gust Speed Precip Events Conditions
12:52 AM 66.0 °F 57.0 °F 73% 29.95 in 10.0 mi SW 5.8 mph - N/A   Mostly Cloudy
1:52 AM 66.0 °F 55.9 °F 70% 29.97 in 10.0 mi SSW 3.5 mph - N/A   Mostly Cloudy
2:52 AM 66.0 °F 55.9 °F 70% 29.96 in 10.0 mi SW 6.9 mph - N/A   Overcast
3:52 AM 66.0 °F 55.9 °F 70% 29.94 in 10.0 mi SW 5.8 mph - N/A   Overcast
4:52 AM 64.9 °F 57.0 °F 75% 29.94 in 10.0 mi West 6.9 mph - 0.01 in   Overcast
5:52 AM 64.9 °F 55.9 °F 73% 29.94 in 10.0 mi WSW 5.8 mph - N/A   Overcast
6:52 AM 64.9 °F 55.9 °F 73% 29.96 in 10.0 mi WSW 11.5 mph - N/A   Overcast
7:52 AM 64.9 °F 55.9 °F 73% 29.99 in 10.0 mi WSW 8.1 mph - N/A   Overcast
8:52 AM 66.0 °F 57.0 °F 73% 29.99 in 10.0 mi WSW 9.2 mph - N/A   Overcast
9:52 AM 64.0 °F 57.0 °F 78% 30.01 in 10.0 mi West 8.1 mph - 0.00 in   Overcast
10:52 AM 68.0 °F 57.9 °F 70% 30.00 in 10.0 mi WSW 10.4 mph - 0.00 in   Mostly Cloudy
11:48 AM 69.8 °F 57.2 °F 64% 30.08 in 10.0 mi WSW 8.1 mph - N/A   Overcast
11:52 AM 69.1 °F 57.9 °F 68% 29.99 in 10.0 mi Variable 6.9 mph - N/A   Mostly Cloudy
12:52 PM 71.1 °F 57.9 °F 63% 29.97 in 10.0 mi West 11.5 mph - N/A   Mostly Cloudy
1:52 PM 73.0 °F 53.1 °F 49% 29.95 in 10.0 mi West 16.1 mph - N/A   Mostly Cloudy
2:52 PM 73.9 °F 54.0 °F 50% 29.94 in 10.0 mi West 13.8 mph 21.9 mph N/A   Mostly Cloudy
3:52 PM 72.0 °F 53.1 °F 51% 29.93 in 10.0 mi WNW 11.5 mph 24.2 mph N/A   Mostly Cloudy
4:52 PM 72.0 °F 50.0 °F 46% 29.92 in 10.0 mi WNW 12.7 mph 21.9 mph N/A   Mostly Cloudy
5:52 PM 73.0 °F 41.0 °F 31% 29.93 in 10.0 mi West 15.0 mph 27.6 mph N/A   Clear
6:52 PM 72.0 °F 43.0 °F 35% 29.93 in 10.0 mi West 9.2 mph - N/A   Clear
7:52 PM 69.1 °F 45.0 °F 42% 29.96 in 10.0 mi NW 11.5 mph - N/A   Clear
8:52 PM 66.0 °F 45.0 °F 47% 29.97 in 10.0 mi West 5.8 mph - N/A   Clear
9:52 PM 64.0 °F 46.0 °F 52% 29.99 in 10.0 mi WNW 6.9 mph - N/A   Clear
10:52 PM 63.0 °F 48.0 °F 58% 29.98 in 10.0 mi WNW 4.6 mph - N/A   Clear
11:52 PM 61.0 °F 48.0 °F 62% 29.98 in 10.0 mi Variable 5.8 mph - N/A   Clear